{"data":{"norad_id":69825,"intl_designator":"2026-154G","name":"STARLINK-37690","alt_names":[],"object_type":"PAYLOAD","status":"ACTIVE","operator":null,"country":"US","launch_date":"2026-07-05","launch_site_code":"AFETR","launch_vehicle":null,"mission":null,"orbit_class":"UNKNOWN","rcs_meters":null,"size_class":null,"mass_kg":null,"dimensions":null,"purposes":["comms"],"wikipedia_slug":null,"has_3d_model":false,"image_url":null,"decayed_at":null,"tle_current":{"epoch":"2026-09-19T04:38:20.022720Z","epoch_age_seconds":130703,"freshness":"FRESH","line1":"1 69825U 26154G   26262.19328730  .00019993  00000+0  60094-3 0  9991","line2":"2 69825  53.1597 338.1134 0002345  82.1001 278.0268 15.34417095 13030","mean_motion":15.34417095,"eccentricity":0.0002345,"inclination_deg":53.1597,"raan_deg":338.1134,"arg_perigee_deg":82.1001,"mean_anomaly_deg":278.0268,"bstar":0.00060094,"rev_number":1303,"period_min":93.846712519845,"perigee_km":461.04826561472,"apogee_km":464.25659585774,"semimajor_km":6840.7894307362,"source":"CELESTRAK","updated_at":"2026-09-20T09:00:44.292280Z"}}}